Weather History for KAPY - February, 2014

Change the Weather History Date:

Monday, February 24, 2014

  Actual Average (KLRD) Record (KLRD)
Temperature  
Mean Temperature 72 °F 63 °F  
Max Temperature 80 °F 74 °F 98 °F (1917)
Min Temperature 63 °F 52 °F 31 °F (1968)
Degree Days  
Heating Degree Days 0 4  
Month to date heating degree days 148  
Since 1 July heating degree days 827  
Cooling Degree Days 6 3  
Month to date cooling degree days 46  
Year to date cooling degree days 74  
Growing Degree Days 22 (Base 50)    
Moisture  
Dew Point 67 °F    
Average Humidity 86    
Maximum Humidity 100    
Minimum Humidity 58    
Precipitation  
Precipitation 0.00 in 0.03 in 2.25 in (2004)
Month to date precipitation 0.78  
Year to date precipitation 1.68  
Sea Level Pressure  
Sea Level Pressure 29.97 in    
Wind  
Wind Speed 5 mph (ESE)    
Max Wind Speed 15 mph    
Max Gust Speed 23 mph    
Visibility 6 miles    
Events Fog , Rain , Thunderstorm    
T = Trace of Precipitation, MM = Missing Value Source: NWS Daily Summary

Daily Weather History Graph

Daily Weather History Graph

Search for Another Location

Airport or City:

Trip Planner

Search our weather history database for the weather conditions in past years. The results will help you decide how hot, cold, wet, or windy it might be!

Date:

Astronomy

Feb. 24, 2014 Rise Set
Actual Time 7:05 AM CST 6:35 PM CST
Civil Twilight 6:42 AM CST 6:58 PM CST
Nautical Twilight 6:15 AM CST 7:25 PM CST
Astronomical Twilight 5:48 AM CST 7:52 PM CST
Moon 2:49 AM CST (2/24) 1:53 PM CST (2/24)
Length of Visible Light 12h 16m
Length of Day
11h 29m
Waning Crescent, 28% of the Moon is Illuminated
Feb 24
Waning Crescent
Mar 1
New
Mar 8
First Quarter
Mar 16
Full
Mar 23
Last Quarter

Hourly Weather History & Observations

Time (CST) Temp. Heat Index Dew Point Humidity Pressure Visibility Wind Dir Wind Speed Gust Speed Precip Events Conditions
12:15 AM 65.8 °F - 63.9 °F 93% 29.96 in 5.0 mi East 3.5 mph - N/A   Clear
12:35 AM 66.0 °F - 64.0 °F 93% 29.96 in 5.0 mi Calm Calm - N/A   Clear
12:55 AM 65.1 °F - 63.9 °F 96% 29.96 in 5.0 mi Calm Calm - N/A   Mostly Cloudy
1:15 AM 63.7 °F - 61.7 °F 93% 29.95 in 5.0 mi Calm Calm - N/A   Overcast
1:35 AM 64.8 °F - 63.1 °F 94% 29.96 in 5.0 mi Calm Calm - N/A   Overcast
1:55 AM 67.3 °F - 66.2 °F 96% 29.95 in 5.0 mi ESE 3.5 mph - N/A   Overcast
2:15 AM 68.0 °F - 66.7 °F 96% 29.95 in 5.0 mi East 4.6 mph - N/A   Overcast
2:35 AM 68.0 °F - 67.1 °F 97% 29.94 in 5.0 mi East 3.5 mph - N/A   Overcast
2:55 AM 67.5 °F - 66.7 °F 98% 29.94 in 5.0 mi East 3.5 mph - N/A   Scattered Clouds
3:10 AM 66.9 °F - 66.2 °F 98% 29.93 in 4.0 mi Calm Calm - N/A   Scattered Clouds
3:35 AM 66.7 °F - 66.4 °F 99% 29.94 in 3.0 mi Calm Calm - N/A   Clear
3:55 AM 66.2 °F - 65.8 °F 99% 29.94 in 2.5 mi Calm Calm - N/A   Clear
4:15 AM 66.4 °F - 66.2 °F 99% 29.96 in 2.5 mi Calm Calm - N/A   Clear
4:35 AM 65.5 °F - 65.3 °F 99% 29.96 in 1.0 mi Calm Calm - N/A   Mostly Cloudy
4:55 AM 66.2 °F - 66.2 °F 100% 29.96 in 2.0 mi NNE 4.6 mph - N/A   Mostly Cloudy
5:15 AM 66.0 °F - 65.8 °F 99% 29.96 in 1.2 mi NNE 3.5 mph - N/A   Overcast
5:35 AM 66.2 °F - 66.2 °F 100% 29.97 in 0.5 mi NE 4.6 mph - N/A Fog Fog
5:55 AM 67.1 °F - 66.9 °F 99% 29.98 in 0.5 mi ENE 3.5 mph - N/A Fog Fog
6:15 AM 67.6 °F - 67.5 °F 99% 29.98 in 1.5 mi East 5.8 mph - N/A   Overcast
6:35 AM 67.6 °F - 67.5 °F 99% 29.98 in 1.0 mi ENE 6.9 mph - N/A   Overcast
6:55 AM 68.0 °F - 67.6 °F 99% 29.99 in 1.2 mi ENE 5.8 mph - N/A   Overcast
7:15 AM 68.0 °F - 68.0 °F 100% 29.98 in 1.0 mi ENE 6.9 mph - N/A   Overcast
7:35 AM 68.2 °F - 68.0 °F 99% 29.99 in 1.2 mi East 5.8 mph - N/A   Overcast
7:55 AM 68.4 °F - 68.4 °F 100% 30.00 in 1.8 mi East 3.5 mph - N/A   Overcast
8:15 AM 68.7 °F - 68.5 °F 99% 30.00 in 2.5 mi ENE 5.8 mph - N/A   Overcast
8:35 AM 68.9 °F - 68.5 °F 99% 30.01 in 3.0 mi East 5.8 mph - N/A   Overcast
8:55 AM 69.3 °F - 68.9 °F 99% 30.01 in 4.0 mi East 6.9 mph - N/A   Overcast
9:15 AM 70.2 °F - 68.5 °F 95% 30.02 in 5.0 mi East 9.2 mph - N/A   Overcast
9:35 AM 71.1 °F - 68.2 °F 91% 30.04 in 7.0 mi East 5.8 mph - N/A   Overcast
9:55 AM 71.1 °F - 68.2 °F 91% 30.04 in 7.0 mi ESE 6.9 mph - N/A   Overcast
10:15 AM 71.6 °F - 67.6 °F 87% 30.05 in 7.0 mi ESE 9.2 mph - N/A   Overcast
10:30 AM 71.2 °F - 67.5 °F 88% 30.04 in 7.0 mi East 8.1 mph - N/A   Overcast
10:55 AM 73.0 °F - 67.6 °F 83% 30.04 in 7.0 mi ESE 9.2 mph - N/A   Overcast
11:15 AM 73.4 °F - 67.5 °F 82% 30.04 in 7.0 mi ESE 6.9 mph - N/A   Overcast
11:35 AM 73.2 °F - 67.6 °F 83% 30.04 in 7.0 mi ESE 9.2 mph - N/A   Overcast
11:55 AM 73.2 °F - 67.5 °F 82% 30.04 in 7.0 mi SE 8.1 mph - N/A Thunderstorm Overcast
12:15 PM 72.9 °F - 67.5 °F 83% 30.04 in 5.0 mi SE 8.1 mph - N/A Thunderstorm Haze
12:35 PM 74.3 °F - 67.8 °F 80% 30.03 in 7.0 mi SE 8.1 mph - N/A Thunderstorm Scattered Clouds
12:55 PM 75.4 °F - 67.6 °F 77% 30.04 in 7.0 mi SSE 3.5 mph - N/A   Mostly Cloudy
1:15 PM 77.5 °F - 67.3 °F 71% 30.02 in 7.0 mi ESE 6.9 mph - N/A   Overcast
1:35 PM 76.3 °F - 66.6 °F 72% 30.00 in 7.0 mi ESE 10.4 mph - N/A   Overcast
1:55 PM 78.6 °F - 67.1 °F 68% 29.97 in 7.0 mi ESE 11.5 mph - N/A   Mostly Cloudy
2:15 PM 78.8 °F - 66.9 °F 67% 29.95 in 7.0 mi SE 15.0 mph 23.0 mph N/A Rain Light Rain
2:35 PM 78.8 °F - 66.6 °F 66% 29.95 in 7.0 mi ESE 11.5 mph 17.3 mph N/A   Scattered Clouds
2:55 PM 79.9 °F - 67.3 °F 65% 29.95 in 7.0 mi SE 11.5 mph 18.4 mph N/A   Mostly Cloudy
3:15 PM 79.2 °F - 67.1 °F 66% 29.93 in 7.0 mi SE 10.4 mph - N/A   Mostly Cloudy
3:35 PM 80.6 °F 82.9 °F 66.9 °F 63% 29.93 in 7.0 mi SE 11.5 mph - N/A   Mostly Cloudy
3:55 PM 80.2 °F 82.6 °F 67.1 °F 64% 29.92 in 7.0 mi SE 13.8 mph - N/A   Mostly Cloudy
4:10 PM 78.8 °F - 67.1 °F 67% 29.93 in 7.0 mi SE 15.0 mph 19.6 mph N/A   Mostly Cloudy
4:35 PM 79.9 °F - 67.1 °F 65% 29.92 in 10.0 mi SE 10.4 mph - N/A   Mostly Cloudy
4:55 PM 80.1 °F 81.9 °F 64.9 °F 60% 29.92 in 10.0 mi SE 9.2 mph - N/A   Scattered Clouds
5:15 PM 79.3 °F - 63.9 °F 59% 29.92 in 10.0 mi SSE 9.2 mph - N/A   Clear
5:35 PM 78.4 °F - 62.6 °F 58% 29.91 in 10.0 mi SE 10.4 mph 17.3 mph N/A   Clear
5:55 PM 77.4 °F - 62.1 °F 59% 29.92 in 10.0 mi SE 6.9 mph - N/A   Clear
6:15 PM 76.3 °F - 63.0 °F 63% 29.93 in 10.0 mi SE 5.8 mph - N/A   Clear
6:35 PM 75.0 °F - 65.3 °F 72% 29.94 in 7.0 mi ESE 6.9 mph - N/A   Clear
6:55 PM 73.8 °F - 66.4 °F 78% 29.94 in 10.0 mi ESE 5.8 mph - N/A   Clear
7:15 PM 72.7 °F - 66.4 °F 81% 29.95 in 10.0 mi East 4.6 mph - N/A   Clear
7:35 PM 72.0 °F - 66.2 °F 82% 29.96 in 10.0 mi East 5.8 mph - N/A   Scattered Clouds
7:55 PM 72.0 °F - 66.6 °F 83% 29.96 in 10.0 mi East 5.8 mph - N/A   Mostly Cloudy
8:15 PM 72.3 °F - 66.7 °F 83% 29.97 in 10.0 mi East 4.6 mph - N/A   Mostly Cloudy
8:35 PM 72.7 °F - 67.1 °F 83% 29.98 in 10.0 mi East 4.6 mph - N/A   Overcast
8:55 PM 73.0 °F - 67.6 °F 83% 29.98 in 10.0 mi East 5.8 mph - N/A   Overcast
9:15 PM 72.7 °F - 67.6 °F 84% 29.98 in 7.0 mi East 6.9 mph - N/A   Overcast
9:30 PM 72.7 °F - 67.8 °F 85% 29.97 in 7.0 mi East 8.1 mph - N/A   Overcast
9:55 PM 71.8 °F - 67.3 °F 86% 29.97 in 10.0 mi East 8.1 mph - N/A   Mostly Cloudy
10:15 PM 71.2 °F - 68.5 °F 91% 29.97 in 7.0 mi East 6.9 mph - N/A   Scattered Clouds
10:35 PM 70.9 °F - 68.9 °F 93% 29.97 in 7.0 mi East 6.9 mph - N/A   Mostly Cloudy
10:55 PM 70.3 °F - 68.5 °F 94% 29.98 in 7.0 mi East 9.2 mph - N/A   Scattered Clouds
11:10 PM 69.8 °F - 68.4 °F 95% 29.97 in 7.0 mi East 8.1 mph - N/A   Scattered Clouds
11:35 PM 69.8 °F - 68.5 °F 96% 29.97 in 5.0 mi East 9.2 mph - N/A   Mostly Cloudy
11:55 PM 69.8 °F - 68.7 °F 96% 29.97 in 5.0 mi ESE 10.4 mph - N/A   Overcast